This demonstration page uses our WeatherBlox Daily Observations layout. Learn more.

Hourly Observations for January 14, 2021

Temp ( °F °C ) Dew Point ( °F °C ) Humidity (%) Winds ( mph kmh ) Pressure ( in mb ) Visibility ( mi km ) Precip ( " mm )
12:15 am 00:15 Clear 30 -1 28 -2 93 93 Calm 29.88 1012 10 16.0934 0 0
12:35 am 00:35 Clear 30 -1 28 -2 93 93 N 3 6 29.87 1012 10 16.0934 0 0
12:55 am 00:55 Clear 28 -2 28 -2 100 100 N 3 6 29.88 1012 10 16.0934 0 0
1:15 am 01:15 Clear 28 -2 27 -3 93 93 N 3 6 29.88 1012 10 16.0934 0 0
1:35 am 01:35 Clear 30 -1 30 -1 100 100 N 5 7 29.87 1012 10 16.0934 0 0
1:55 am 01:55 Clear 32 0 30 -1 93 93 Calm 29.87 1012 10 16.0934 0 0
2:15 am 02:15 Clear 30 -1 30 -1 100 100 Calm 29.87 1012 10 16.0934 0 0
2:35 am 02:35 Clear 28 -2 27 -3 93 93 Calm 29.88 1012 10 16.0934 0 0
2:55 am 02:55 Partly Cloudy 28 -2 28 -2 100 100 NW 3 6 29.88 1012 10 16.0934 0 0
3:15 am 03:15 Partly Cloudy 28 -2 28 -2 100 100 Calm 29.89 1012 10 16.0934 0 0
3:35 am 03:35 Partly Cloudy 30 -1 28 -2 93 93 Calm 29.87 1012 10 16.0934 0 0
3:55 am 03:55 Clear 28 -2 28 -2 100 100 Calm 29.88 1012 10 16.0934 0 0
4:15 am 04:15 Clear 28 -2 28 -2 100 100 NNW 5 7 29.87 1011 10 16.0934 0 0
4:35 am 04:35 Clear 30 -1 30 -1 100 100 Calm 29.85 1011 10 16.0934 0 0
4:55 am 04:55 Clear 30 -1 30 -1 100 100 Calm 29.85 1011 10 16.0934 0 0
5:15 am 05:15 Partly Cloudy 30 -1 30 -1 100 100 NNW 5 7 29.86 1011 10 16.0934 0 0
5:35 am 05:35 Partly Cloudy 32 0 30 -1 93 93 Calm 29.87 1012 10 16.0934 0 0
5:55 am 05:55 Clear 30 -1 28 -2 93 93 SSW 3 6 29.88 1012 10 16.0934 0 0
6:15 am 06:15 Partly Cloudy 30 -1 28 -2 93 93 Calm 29.88 1012 10 16.0934 0 0
6:35 am 06:35 Clear 28 -2 28 -2 100 100 Calm 29.89 1012 10 16.0934 0 0
6:55 am 06:55 Clear 30 -1 28 -2 93 93 NW 3 6 29.88 1012 10 16.0934 0 0
7:15 am 07:15 Clear 30 -1 28 -2 93 93 Calm 29.88 1012 10 16.0934 0 0
7:35 am 07:35 Sunny 28 -2 28 -2 100 100 Calm 29.9 1012 10 16.0934 0 0
7:55 am 07:55 Sunny 30 -1 30 -1 100 100 Calm 29.88 1012 10 16.0934 0 0
8:15 am 08:15 Sunny 30 -1 28 -2 93 93 Calm 29.88 1012 10 16.0934 0 0
8:35 am 08:35 Sunny 32 0 30 -1 93 93 Calm 29.89 1012 10 16.0934 0 0
8:55 am 08:55 Sunny 32 0 30 -1 93 93 Calm 29.89 1012 10 16.0934 0 0
9:15 am 09:15 Sunny 32 0 30 -1 93 93 Calm 29.89 1012 10 16.0934 0 0
9:35 am 09:35 Sunny 32 0 32 0 100 100 Calm 29.89 1012 10 16.0934 0 0
9:55 am 09:55 Partly Cloudy 39 4 32 0 75 75 Calm 29.9 1012 10 16.0934 0 0
10:15 am 10:15 Partly Cloudy 39 4 32 0 75 75 Calm 29.9 1012 10 16.0934 0 0
10:35 am 10:35 Sunny 43 6 32 0 66 66 Calm 29.89 1012 10 16.0934 0 0
10:55 am 10:55 Sunny 45 7 32 0 61 61 Calm 29.89 1012 10 16.0934 0 0
11:15 am 11:15 Sunny 46 8 30 -1 53 53 NNE 3 6 29.88 1012 10 16.0934 0 0
11:35 am 11:35 Sunny 48 9 30 -1 50 50 N 5 7 29.87 1011 10 16.0934 0 0
11:55 am 11:55 Sunny 50 10 30 -1 47 47 N 6 9 29.86 1011 10 16.0934 0 0
12:15 pm 12:15 Sunny 50 10 30 -1 47 47 N 7 11 29.84 1010 10 16.0934 0 0
12:35 pm 12:35 Sunny 50 10 30 -1 47 47 NNW 6 9 29.84 1010 10 16.0934 0 0
1:55 pm 13:55 Sunny 52 11 28 -2 41 41 NNE 3 6 29.8 1009 10 16.0934 0 0
2:15 pm 14:15 Sunny 52 11 30 -1 44 44 Calm 29.79 1009 10 16.0934 0 0
2:35 pm 14:35 Sunny 52 11 28 -2 41 41 Calm 29.79 1009 10 16.0934 0 0
2:55 pm 14:55 Sunny 54 12 28 -2 38 38 W 3 6 29.79 1009 10 16.0934 0 0
3:15 pm 15:15 Sunny 54 12 28 -2 38 38 W 3 6 29.8 1009 10 16.0934 0 0
3:35 pm 15:35 Sunny 52 11 27 -3 38 38 SSW 5 7 29.8 1009 10 16.0934 0 0
3:55 pm 15:55 Sunny 52 11 28 -2 41 41 Calm 29.8 1009 10 16.0934 0 0
4:15 pm 16:15 Sunny 52 11 28 -2 41 41 S 3 6 29.8 1009 10 16.0934 0 0
4:35 pm 16:35 Sunny 52 11 28 -2 41 41 S 3 6 29.8 1009 10 16.0934 0 0
4:55 pm 16:55 Sunny 52 11 28 -2 41 41 Calm 29.79 1009 10 16.0934 0 0
5:15 pm 17:15 Clear 50 10 28 -2 43 43 Calm 29.8 1009 10 16.0934 0 0
5:35 pm 17:35 Clear 50 10 28 -2 43 43 SSE 5 7 29.81 1009 10 16.0934 0 0
5:55 pm 17:55 Clear 48 9 28 -2 46 46 S 5 7 29.82 1010 10 16.0934 0 0
6:15 pm 18:15 Clear 46 8 28 -2 50 50 SSE 3 6 29.82 1010 10 16.0934 0 0
6:35 pm 18:35 Clear 46 8 28 -2 50 50 Calm 29.82 1010 10 16.0934 0 0
6:55 pm 18:55 Clear 41 5 28 -2 61 61 Calm 29.83 1010 10 16.0934 0 0
7:15 pm 19:15 Clear 41 5 30 -1 66 66 Calm 29.84 1011 10 16.0934 0 0
7:35 pm 19:35 Clear 43 6 30 -1 61 61 Calm 29.84 1011 10 16.0934 0 0
7:55 pm 19:55 Clear 43 6 30 -1 61 61 E 3 6 29.84 1011 10 16.0934 0 0
8:15 pm 20:15 Clear 43 6 30 -1 61 61 E 3 6 29.84 1011 10 16.0934 0 0
8:35 pm 20:35 Clear 37 3 30 -1 75 75 Calm 29.86 1011 10 16.0934 0 0
8:55 pm 20:55 Clear 37 3 30 -1 75 75 Calm 29.85 1011 10 16.0934 0 0
9:15 pm 21:15 Clear 36 2 30 -1 81 81 Calm 29.86 1011 10 16.0934 0 0
9:35 pm 21:35 Clear 37 3 30 -1 75 75 ENE 3 6 29.86 1011 10 16.0934 0 0
9:55 pm 21:55 Clear 37 3 30 -1 75 75 ENE 5 7 29.86 1011 10 16.0934 0 0
10:15 pm 22:15 Clear 34 1 30 -1 87 87 Calm 29.87 1012 10 16.0934 0 0
10:35 pm 22:35 Clear 34 1 30 -1 87 87 Calm 29.87 1012 10 16.0934 0 0
10:55 pm 22:55 Clear 34 1 30 -1 87 87 Calm 29.87 1012 10 16.0934 0 0
11:15 pm 23:15 Clear 34 1 30 -1 87 87 Calm 29.87 1012 10 16.0934 0 0
11:35 pm 23:35 Clear 36 2 30 -1 81 81 Calm 29.88 1012 10 16.0934 0 0
11:55 pm 23:55 Clear 34 1 30 -1 87 87 Calm 29.88 1012 10 16.0934 0 0

Powered by AerisWeather